Погода в Обервилье

Франция     48°54′51″N   2°22′53″E
темп.,
°C
ветер,
м/с
пор.,
м/с
влажн.,
%
обл.,
%
осадки,
мм/ч
давл.,
гПа
погр.,
м
28 февраля, вс
вс2801:00+5всв412770 0.0 1036524
04:00+4св410840 0.0 1035398
07:00+3св411860 0.0 1034422
10:00+5всв510720 0.0 1034507
13:00+9всв59560 0.0 1033743
16:00+11всв69500 0.0 1031969
19:00+8всв49620 0.0 1031616
22:00+6всв411670 0.0 1031414
1 марта, пн
пн101:00+5в49740 0.0 1031307
04:00+4в37780 0.0 1030232
07:00+3всв36790 0.0 1030188
10:00+5в35690 0.0 1030286
13:00+10в24540 0.0 1029537
16:00+12в34510 0.0 1028780
19:00+9в25710 0.0 1028185
22:00+7в24820 0.0 1028110
2 марта, вт
вт201:00+6в12880 0.0 102828
04:00+6вюв12910 0.0 102825
07:00+5юв22920 0.0 102836
10:00+8юв24755 0.0 1029229
13:00+13ю24555 0.0 1029442
16:00+16ююз24390 0.0 1028870
19:00+12ююв225024 0.0 102928
22:00+10юв226578 0.0 102943
3 марта, ср
ср301:00+9ююв227263 0.0 102939
04:00+8ююв227859 0.0 102928
07:00+8ю227375 0.0 102926
10:00+10ю126693 0.0 1029144
13:00+12зюз137497 0.6 1028337
16:00+12ссв117898 0.3 1027168
19:00+10ю119487 4.6 102522
22:00+9юз229560 1.8 102548
4 марта, чт
чт401:00+8зюз129635 2.0 102433
04:00+8зюз249338 0.0 1022116
07:00+7зюз239343 0.0 1021129
10:00+9зсз248469 0.2 1021305
13:00+12сз347155 0.5 1021800
16:00+12ссз466662 0.3 1020972
19:00+10с477772 0.3 1020670
22:00+7с488337 0.0 1021464